Location: Wawayanda State Park
(41.1833°N, 74.4333°W)
Time: 10:33:38
(UTC-04:00)

Landsat 7 - Visible Passes

Search period start: 22 May 2015 00:00
Search period end: 01 June 2015 00:00
Orbit: 702 x 703 km, 98.2° (Epoch: 22 May)

Date Brightness Start Highest point End Pass type
(mag) Time Alt. Az. Time Alt. Az. Time Alt. Az.
22 May 4.8 21:53:53 23° ESE 21:55:56 32° ENE 22:00:11 10° N visible
22 May 5.3 23:32:46 25° WSW 23:33:44 26° W 23:37:41 10° NW visible
23 May 6.1 21:01:16 10° ENE 21:01:27 10° ENE 21:01:56 10° NE visible
23 May 3.7 22:37:05 46° SSE 22:38:33 86° ENE 22:43:19 10° NNW visible
24 May 5.2 21:41:25 17° ESE 21:43:47 25° ENE 21:47:41 10° NNE visible
24 May 4.9 23:20:18 31° SW 23:21:25 35° W 23:25:44 10° NNW visible
25 May 3.9 22:24:37 38° SE 22:26:20 65° ENE 22:31:04 10° N visible
26 May 6.2 00:03:30 12° WSW 00:04:38 13° W 00:06:41 10° WNW visible
26 May 5.5 21:28:57 12° ESE 21:31:39 20° ENE 21:35:06 10° NNE visible
26 May 4.5 23:07:49 37° SW 23:09:07 46° W 23:13:42 10° NNW visible
27 May 4.2 22:12:09 30° SE 22:14:08 49° ENE 22:18:44 10° N visible
27 May 5.8 23:51:02 16° WSW 23:52:14 17° W 23:55:18 10° NW visible
28 May 5.8 21:16:57 10° E 21:19:32 15° ENE 21:22:20 10° NNE visible
28 May 4.1 22:55:21 41° SSW 22:56:51 62° W 23:01:35 10° NNW visible
29 May 4.6 21:59:41 23° ESE 22:01:57 37° ENE 22:06:21 10° N visible
29 May 5.5 23:38:34 21° WSW 23:39:51 23° W 23:43:34 10° NW visible
30 May 6.0 21:05:57 10° E 21:07:27 12° ENE 21:09:10 10° NE visible
30 May 3.8 22:42:53 40° S 22:44:35 83° WSW 22:49:24 10° NNW visible
31 May 5.0 21:47:13 17° ESE 21:49:47 28° ENE 21:53:54 10° N visible
31 May 5.2 23:26:06 26° SW 23:27:31 30° W 23:31:40 10° NW visible
